CFG29W EGLL-EDDH

Flight info

Callsign CFG29W
Flight time 1h 8m
Altitude 33000
Route BPK Q295 SOMVA DCT MAVAS DCT GASTU DCT OSTOR/N0390F230 T904 RIBSO RIBSO3S
Aircraft A320/M-SDE3FGHIRWY/LB1

Departure

Time 2026-05-04 22:44
Airport London Heathrow Airport (EGLL)

Arrival

Time 2026-05-04 23:53
Airport Hamburg Helmut Schmidt Airport (EDDH)
Time Latitude Longitude Altitude Speed Heading
2026-05-04 22:26 51.47248 -0.44184 59 ft 0 kts 270°
2026-05-04 22:34 51.47248 -0.44170 88 ft 2 kts 270°
2026-05-04 22:34 51.47248 -0.44142 86 ft 2 kts 270°
2026-05-04 22:35 51.47248 -0.44115 86 ft 2 kts 270°
2026-05-04 22:35 51.47247 -0.44088 86 ft 2 kts 243°
2026-05-04 22:35 51.47258 -0.44070 90 ft 1 kts 178°
2026-05-04 22:37 51.47217 -0.44068 86 ft 14 kts 179°
2026-05-04 22:37 51.47074 -0.44060 86 ft 24 kts 179°
2026-05-04 22:37 51.46939 -0.44056 88 ft 18 kts 179°
2026-05-04 22:37 51.46819 -0.44054 89 ft 16 kts 180°
2026-05-04 22:38 51.46712 -0.44055 88 ft 14 kts 186°
2026-05-04 22:38 51.46667 -0.44159 86 ft 11 kts 266°
2026-05-04 22:38 51.46666 -0.44315 86 ft 19 kts 269°
2026-05-04 22:38 51.46666 -0.44524 86 ft 19 kts 270°
2026-05-04 22:39 51.46666 -0.44730 86 ft 18 kts 270°
2026-05-04 22:39 51.46667 -0.44939 86 ft 19 kts 269°
2026-05-04 22:39 51.46663 -0.45159 86 ft 20 kts 269°
2026-05-04 22:39 51.46663 -0.45393 86 ft 22 kts 270°
2026-05-04 22:40 51.46662 -0.45643 86 ft 23 kts 270°
2026-05-04 22:40 51.46661 -0.45908 86 ft 24 kts 270°
2026-05-04 22:40 51.46660 -0.46186 86 ft 26 kts 270°
2026-05-04 22:40 51.46660 -0.46477 87 ft 27 kts 270°
2026-05-04 22:41 51.46658 -0.46782 90 ft 28 kts 270°
2026-05-04 22:41 51.46657 -0.47100 90 ft 29 kts 270°
2026-05-04 22:41 51.46657 -0.47425 89 ft 28 kts 269°
2026-05-04 22:41 51.46656 -0.47743 86 ft 29 kts 270°
2026-05-04 22:42 51.46654 -0.48072 86 ft 23 kts 270°
2026-05-04 22:42 51.46610 -0.48211 87 ft 10 kts 188°
2026-05-04 22:42 51.46597 -0.48212 89 ft 0 kts 182°
2026-05-04 22:43 51.46590 -0.48212 88 ft 5 kts 183°
2026-05-04 22:43 51.46511 -0.48202 90 ft 12 kts 155°
2026-05-04 22:43 51.46480 -0.48086 87 ft 14 kts 91°
2026-05-04 22:44 51.46480 -0.47736 86 ft 63 kts 89°
2026-05-04 22:44 51.46486 -0.46695 91 ft 122 kts 90°
2026-05-04 22:44 51.46501 -0.45065 117 ft 166 kts 86°
2026-05-04 22:44 51.46495 -0.43263 736 ft 163 kts 86°
2026-05-04 22:45 51.46521 -0.41447 1441 ft 165 kts 82°
2026-05-04 22:45 51.48043 -0.38222 1990 ft 207 kts 45°
2026-05-04 22:45 51.49082 -0.36425 2311 ft 231 kts 47°
2026-05-04 22:46 51.50204 -0.34436 2834 ft 249 kts 47°
2026-05-04 22:46 51.51362 -0.32298 3582 ft 258 kts 49°
2026-05-04 22:46 51.52393 -0.29909 4374 ft 267 kts 66°
2026-05-04 22:46 51.52972 -0.27045 5193 ft 273 kts 71°
2026-05-04 22:47 51.53572 -0.24130 5868 ft 278 kts 67°
2026-05-04 22:47 51.54467 -0.21444 6064 ft 276 kts 51°
2026-05-04 22:47 51.55773 -0.19201 6270 ft 275 kts 42°
2026-05-04 22:47 51.57168 -0.17082 6475 ft 277 kts 42°
2026-05-04 22:48 51.58582 -0.14966 6670 ft 278 kts 41°
2026-05-04 22:48 51.60006 -0.12847 6865 ft 279 kts 41°
2026-05-04 22:48 51.61434 -0.10720 7062 ft 281 kts 41°
2026-05-04 22:48 51.62872 -0.08585 7260 ft 281 kts 41°
2026-05-04 22:49 51.64315 -0.06447 7458 ft 283 kts 41°
2026-05-04 22:49 51.65764 -0.04295 7648 ft 284 kts 41°
2026-05-04 22:49 51.67221 -0.02145 7868 ft 284 kts 41°
2026-05-04 22:49 51.68680 0.00010 8071 ft 285 kts 41°
2026-05-04 22:50 51.69976 0.02437 8260 ft 287 kts 54°
2026-05-04 22:50 51.71111 0.05030 8467 ft 287 kts 54°
2026-05-04 22:50 51.72261 0.07664 8672 ft 288 kts 54°
2026-05-04 22:50 51.73414 0.10312 8883 ft 289 kts 54°
2026-05-04 22:51 51.74573 0.12963 9090 ft 289 kts 54°
2026-05-04 22:51 51.75734 0.15616 9292 ft 290 kts 54°
2026-05-04 22:51 51.76802 0.18375 9511 ft 290 kts 63°
2026-05-04 22:51 51.77523 0.21444 10049 ft 294 kts 75°
2026-05-04 22:52 51.77900 0.24726 10653 ft 306 kts 82°
2026-05-04 22:52 51.78195 0.28253 10861 ft 329 kts 83°
2026-05-04 22:52 51.78504 0.32025 11160 ft 346 kts 81°
2026-05-04 22:52 51.79212 0.35768 11761 ft 353 kts 66°
2026-05-04 22:53 51.80221 0.39345 12471 ft 356 kts 65°
2026-05-04 22:53 51.81258 0.42997 13156 ft 360 kts 65°
2026-05-04 22:53 51.82316 0.46717 13720 ft 367 kts 65°
2026-05-04 22:53 51.83388 0.50492 14312 ft 372 kts 65°
2026-05-04 22:54 51.84468 0.54314 14911 ft 375 kts 65°
2026-05-04 22:54 51.85553 0.58165 15537 ft 378 kts 66°
2026-05-04 22:54 51.86648 0.62061 16101 ft 382 kts 65°
2026-05-04 22:54 51.87751 0.65990 16708 ft 385 kts 65°
2026-05-04 22:55 51.88864 0.69960 17277 ft 389 kts 66°
2026-05-04 22:55 51.89967 0.73904 17874 ft 392 kts 66°
2026-05-04 22:55 51.91096 0.77943 18427 ft 396 kts 66°
2026-05-04 22:55 51.92233 0.82019 18960 ft 398 kts 66°
2026-05-04 22:56 51.93378 0.86123 19486 ft 401 kts 66°
2026-05-04 22:56 51.94531 0.90255 20002 ft 404 kts 66°
2026-05-04 22:56 51.95692 0.94422 20531 ft 407 kts 66°
2026-05-04 22:56 51.96858 0.98625 21031 ft 410 kts 66°
2026-05-04 22:57 51.98031 1.02872 21502 ft 414 kts 66°
2026-05-04 22:57 51.99194 1.07093 21966 ft 417 kts 66°
2026-05-04 22:57 52.00380 1.11403 22448 ft 420 kts 66°
2026-05-04 22:57 52.01574 1.15748 22907 ft 423 kts 66°
2026-05-04 22:58 52.02772 1.20123 23377 ft 425 kts 66°
2026-05-04 22:58 52.03977 1.24529 23781 ft 428 kts 66°
2026-05-04 22:58 52.05191 1.28979 24106 ft 432 kts 66°
2026-05-04 22:58 52.06411 1.33459 24445 ft 435 kts 66°
2026-05-04 22:59 52.07640 1.37972 24789 ft 438 kts 66°
2026-05-04 22:59 52.08860 1.42454 25141 ft 440 kts 66°
2026-05-04 22:59 52.10098 1.47012 25472 ft 442 kts 66°
2026-05-04 22:59 52.11347 1.51611 25806 ft 445 kts 66°
2026-05-04 23:00 52.12595 1.56218 26140 ft 447 kts 66°
2026-05-04 23:00 52.13849 1.60857 26457 ft 449 kts 66°
2026-05-04 23:00 52.15106 1.65524 26766 ft 451 kts 66°
2026-05-04 23:00 52.16367 1.70222 27088 ft 454 kts 66°
2026-05-04 23:01 52.17632 1.74944 27398 ft 456 kts 66°
2026-05-04 23:01 52.18900 1.79682 27699 ft 458 kts 67°
2026-05-04 23:01 52.20158 1.84384 27992 ft 460 kts 67°
2026-05-04 23:01 52.21435 1.89167 28279 ft 462 kts 67°
2026-05-04 23:02 52.22717 1.93990 28557 ft 464 kts 67°
2026-05-04 23:02 52.23999 1.98818 28814 ft 465 kts 67°
2026-05-04 23:02 52.25285 2.03675 29084 ft 467 kts 67°
2026-05-04 23:02 52.26575 2.08556 29342 ft 469 kts 67°
2026-05-04 23:03 52.27866 2.13467 29521 ft 473 kts 67°
2026-05-04 23:03 52.29163 2.18419 29698 ft 476 kts 67°
2026-05-04 23:03 52.30468 2.23397 29916 ft 478 kts 67°
2026-05-04 23:03 52.31777 2.28397 30188 ft 478 kts 67°
2026-05-04 23:04 52.33060 2.33312 30470 ft 477 kts 67°
2026-05-04 23:04 52.34359 2.38298 30778 ft 475 kts 67°
2026-05-04 23:04 52.35652 2.43263 31074 ft 474 kts 68°
2026-05-04 23:04 52.36938 2.48218 31370 ft 473 kts 67°
2026-05-04 23:05 52.38222 2.53174 31646 ft 472 kts 68°
2026-05-04 23:05 52.39499 2.58116 31928 ft 471 kts 68°
2026-05-04 23:05 52.40774 2.63062 32217 ft 471 kts 68°
2026-05-04 23:05 52.42042 2.67990 32509 ft 470 kts 68°
2026-05-04 23:06 52.43293 2.72854 32797 ft 469 kts 68°
2026-05-04 23:06 52.44558 2.77770 32994 ft 468 kts 68°
2026-05-04 23:06 52.47069 2.87589 33031 ft 466 kts 68°
2026-05-04 23:07 52.49560 2.97397 33033 ft 465 kts 68°
2026-05-04 23:07 52.52042 3.07199 33033 ft 466 kts 68°
2026-05-04 23:08 52.54503 3.16966 33038 ft 466 kts 68°
2026-05-04 23:08 52.56970 3.26807 33040 ft 466 kts 68°
2026-05-04 23:09 52.59428 3.36667 33038 ft 466 kts 68°
2026-05-04 23:09 52.61881 3.46524 33032 ft 466 kts 68°
2026-05-04 23:10 52.64326 3.56395 33018 ft 466 kts 69°
2026-05-04 23:10 52.66039 3.66573 33007 ft 465 kts 81°
2026-05-04 23:11 52.67142 3.77073 33004 ft 466 kts 82°
2026-05-04 23:11 52.68218 3.87608 33001 ft 466 kts 82°
2026-05-04 23:12 52.69288 3.98149 33004 ft 467 kts 82°
2026-05-04 23:12 52.70349 4.08649 33001 ft 467 kts 82°
2026-05-04 23:13 52.71410 4.19223 33002 ft 468 kts 82°
2026-05-04 23:13 52.72469 4.29823 33001 ft 468 kts 82°
2026-05-04 23:14 52.73519 4.40434 33003 ft 469 kts 82°
2026-05-04 23:14 52.74557 4.51044 32999 ft 469 kts 82°
2026-05-04 23:15 52.75573 4.61606 33001 ft 469 kts 83°
2026-05-04 23:15 52.76590 4.72236 33012 ft 469 kts 83°
2026-05-04 23:16 52.77596 4.82868 33013 ft 469 kts 83°
2026-05-04 23:16 52.78594 4.93517 33012 ft 469 kts 83°
2026-05-04 23:17 52.79576 5.04086 33004 ft 469 kts 83°
2026-05-04 23:17 52.80550 5.14735 33007 ft 469 kts 83°
2026-05-04 23:18 52.81519 5.25389 33006 ft 468 kts 83°
2026-05-04 23:18 52.82481 5.36037 33004 ft 468 kts 83°
2026-05-04 23:19 52.83424 5.46617 33008 ft 468 kts 83°
2026-05-04 23:19 52.84363 5.57273 32995 ft 468 kts 83°
2026-05-04 23:20 52.85295 5.67935 33005 ft 468 kts 83°
2026-05-04 23:20 52.86214 5.78589 33008 ft 468 kts 84°
2026-05-04 23:21 52.87119 5.89251 33008 ft 468 kts 84°
2026-05-04 23:21 52.88011 5.99853 33001 ft 469 kts 84°
2026-05-04 23:22 52.88910 6.10541 32983 ft 469 kts 84°
2026-05-04 23:22 52.89792 6.21241 32995 ft 469 kts 84°
2026-05-04 23:23 52.90665 6.31952 32995 ft 469 kts 84°
2026-05-04 23:23 52.91530 6.42601 33003 ft 471 kts 84°
2026-05-04 23:24 52.92396 6.53488 33008 ft 481 kts 84°
2026-05-04 23:24 52.93268 6.64574 33023 ft 488 kts 85°
2026-05-04 23:25 52.94139 6.75773 33019 ft 491 kts 85°
2026-05-04 23:25 52.95003 6.86992 33016 ft 491 kts 85°
2026-05-04 23:26 52.95854 6.98153 33011 ft 491 kts 85°
2026-05-04 23:26 52.96691 7.09387 33005 ft 491 kts 85°
2026-05-04 23:27 52.97515 7.20633 32980 ft 491 kts 86°
2026-05-04 23:27 52.98339 7.31896 32984 ft 492 kts 86°
2026-05-04 23:28 52.99153 7.43094 32985 ft 492 kts 86°
2026-05-04 23:28 52.99965 7.54378 32982 ft 492 kts 86°
2026-05-04 23:29 53.00753 7.65677 32991 ft 493 kts 86°
2026-05-04 23:29 53.01534 7.77024 32977 ft 496 kts 86°
2026-05-04 23:30 53.01922 7.82702 32976 ft 485 kts 86°
2026-05-04 23:30 53.02298 7.87977 32829 ft 440 kts 86°
2026-05-04 23:30 53.02680 7.92801 32317 ft 419 kts 86°
2026-05-04 23:30 53.03041 7.97531 31575 ft 406 kts 86°
2026-05-04 23:31 53.03428 8.02065 31080 ft 388 kts 85°
2026-05-04 23:31 53.03812 8.06393 30614 ft 368 kts 87°
2026-05-04 23:31 53.04152 8.10491 30360 ft 356 kts 85°
2026-05-04 23:31 53.04594 8.14724 29914 ft 391 kts 83°
2026-05-04 23:32 53.05202 8.19297 29262 ft 419 kts 75°
2026-05-04 23:32 53.06306 8.23923 28561 ft 442 kts 69°
2026-05-04 23:32 53.07543 8.28763 27663 ft 466 kts 66°
2026-05-04 23:32 53.08976 8.33615 26651 ft 475 kts 63°
2026-05-04 23:33 53.10541 8.38370 26404 ft 456 kts 60°
2026-05-04 23:33 53.12100 8.42813 26387 ft 434 kts 59°
2026-05-04 23:33 53.13493 8.47165 26131 ft 419 kts 67°
2026-05-04 23:33 53.14629 8.51562 25821 ft 408 kts 70°
2026-05-04 23:34 53.15709 8.55892 25456 ft 401 kts 66°
2026-05-04 23:34 53.16801 8.60089 25165 ft 389 kts 73°
2026-05-04 23:34 53.17503 8.64374 24944 ft 381 kts 80°
2026-05-04 23:34 53.18055 8.68634 24828 ft 380 kts 80°
2026-05-04 23:35 53.18635 8.72931 24665 ft 380 kts 81°
2026-05-04 23:35 53.19295 8.77255 24239 ft 389 kts 78°
2026-05-04 23:35 53.19591 8.81729 23819 ft 391 kts 93°
2026-05-04 23:35 53.19527 8.86298 23369 ft 397 kts 96°
2026-05-04 23:36 53.19357 8.90920 22872 ft 403 kts 97°
2026-05-04 23:36 53.19156 8.95615 22376 ft 409 kts 97°
2026-05-04 23:36 53.18970 9.00373 21864 ft 415 kts 96°
2026-05-04 23:36 53.18811 9.05286 20743 ft 434 kts 95°
2026-05-04 23:37 53.18682 9.10353 19661 ft 451 kts 94°
2026-05-04 23:37 53.18576 9.15656 18621 ft 464 kts 92°
2026-05-04 23:37 53.18482 9.21095 17758 ft 470 kts 92°
2026-05-04 23:37 53.18381 9.26188 18316 ft 415 kts 94°
2026-05-04 23:38 53.18270 9.30815 18794 ft 391 kts 94°
2026-05-04 23:38 53.18174 9.35274 18610 ft 378 kts 94°
2026-05-04 23:38 53.18081 9.39613 17559 ft 376 kts 94°
2026-05-04 23:38 53.17986 9.43949 17009 ft 372 kts 94°
2026-05-04 23:39 53.17890 9.48223 16466 ft 367 kts 94°
2026-05-04 23:39 53.17791 9.52398 15935 ft 364 kts 94°
2026-05-04 23:39 53.17689 9.56594 15410 ft 360 kts 94°
2026-05-04 23:39 53.17588 9.60747 14896 ft 357 kts 93°
2026-05-04 23:40 53.17487 9.64862 14389 ft 354 kts 93°
2026-05-04 23:40 53.17387 9.68945 13889 ft 351 kts 93°
2026-05-04 23:40 53.17287 9.72988 13336 ft 348 kts 93°
2026-05-04 23:40 53.17185 9.76993 12765 ft 345 kts 93°
2026-05-04 23:41 53.17083 9.80966 12196 ft 341 kts 93°
2026-05-04 23:41 53.16983 9.84848 11636 ft 338 kts 94°
2026-05-04 23:41 53.16879 9.88749 11103 ft 335 kts 94°
2026-05-04 23:41 53.16783 9.92464 10860 ft 308 kts 94°
2026-05-04 23:42 53.16690 9.95959 10284 ft 298 kts 94°
2026-05-04 23:42 53.16595 9.99398 9695 ft 296 kts 94°
2026-05-04 23:42 53.16532 10.02821 9117 ft 295 kts 88°
2026-05-04 23:42 53.17029 10.06144 8523 ft 299 kts 65°
2026-05-04 23:43 53.18026 10.09195 7927 ft 300 kts 61°
2026-05-04 23:43 53.19050 10.12227 7352 ft 301 kts 61°
2026-05-04 23:43 53.20065 10.15219 6797 ft 300 kts 61°
2026-05-04 23:43 53.21117 10.18223 6283 ft 298 kts 56°
2026-05-04 23:44 53.22398 10.20822 6147 ft 282 kts 45°
2026-05-04 23:44 53.23859 10.22866 6015 ft 267 kts 34°
2026-05-04 23:44 53.25421 10.24360 5869 ft 253 kts 24°
2026-05-04 23:44 53.27051 10.25366 5567 ft 247 kts 14°
2026-05-04 23:45 53.28728 10.25894 5200 ft 245 kts
2026-05-04 23:45 53.30399 10.25943 4847 ft 242 kts 354°
2026-05-04 23:45 53.32056 10.25541 4450 ft 239 kts 345°
2026-05-04 23:45 53.33637 10.24725 4096 ft 237 kts 336°
2026-05-04 23:46 53.35107 10.23544 3980 ft 235 kts 330°
2026-05-04 23:46 53.36567 10.22293 3986 ft 236 kts 331°
2026-05-04 23:46 53.38034 10.21043 3987 ft 236 kts 331°
2026-05-04 23:46 53.39488 10.19811 3690 ft 231 kts 331°
2026-05-04 23:47 53.40880 10.18635 3351 ft 216 kts 331°
2026-05-04 23:47 53.42171 10.17539 3060 ft 203 kts 330°
2026-05-04 23:47 53.43404 10.16486 2993 ft 201 kts 330°
2026-05-04 23:47 53.44648 10.15418 3001 ft 199 kts 331°
2026-05-04 23:48 53.45816 10.14418 3024 ft 180 kts 330°
2026-05-04 23:48 53.46906 10.13483 2968 ft 171 kts 330°
2026-05-04 23:48 53.47919 10.12593 2811 ft 159 kts 329°
2026-05-04 23:48 53.48879 10.11722 2645 ft 154 kts 328°
2026-05-04 23:49 53.49798 10.10821 2473 ft 151 kts 328°
2026-05-04 23:49 53.50704 10.09941 2259 ft 150 kts 333°
2026-05-04 23:49 53.51635 10.09177 2042 ft 148 kts 334°
2026-05-04 23:49 53.52541 10.08430 1990 ft 147 kts 333°
2026-05-04 23:50 53.53446 10.07635 1970 ft 147 kts 333°
2026-05-04 23:50 53.54355 10.06855 1854 ft 146 kts 334°
2026-05-04 23:50 53.55272 10.06112 1657 ft 145 kts 337°
2026-05-04 23:50 53.56176 10.05395 1482 ft 143 kts 335°
2026-05-04 23:51 53.57060 10.04630 1392 ft 143 kts 334°
2026-05-04 23:51 53.57946 10.03879 1196 ft 142 kts 338°
2026-05-04 23:51 53.58834 10.03184 972 ft 139 kts 334°
2026-05-04 23:51 53.59711 10.02447 750 ft 141 kts 335°
2026-05-04 23:52 53.60586 10.01705 559 ft 141 kts 333°
2026-05-04 23:52 53.61434 10.00951 373 ft 140 kts 332°
2026-05-04 23:52 53.62304 10.00217 190 ft 140 kts 333°
2026-05-04 23:52 53.63160 9.99477 66 ft 137 kts 333°
2026-05-04 23:53 53.63909 9.98814 51 ft 107 kts 339°
2026-05-04 23:53 53.64257 9.98545 52 ft 22 kts 334°
2026-05-04 23:53 53.64407 9.98417 49 ft 24 kts 332°
2026-05-04 23:53 53.64560 9.98371 50 ft 24 kts 359°
2026-05-04 23:54 53.64687 9.98418 49 ft 11 kts 42°
2026-05-04 23:54 53.64696 9.98469 51 ft 0 kts 87°
2026-05-04 23:54 53.64654 9.98538 51 ft 20 kts 149°
2026-05-04 23:54 53.64515 9.98658 50 ft 24 kts 153°
2026-05-04 23:55 53.64352 9.98796 52 ft 28 kts 153°
2026-05-04 23:55 53.64162 9.98954 51 ft 33 kts 153°
2026-05-04 23:55 53.63759 9.99357 51 ft 33 kts 131°